Location: Heilbronn
(49.1548°N, 9.2780°E)
Time: 01:32:14
(UTC+02:00)

ISS - Visible Passes

Search period start: 25 May 2018 00:00
Search period end: 04 June 2018 00:00
Orbit: 402 x 407 km, 51.6° (Epoch: 25 May)

Date Brightness Start Highest point End Pass type
(mag) Time Alt. Az. Time Alt. Az. Time Alt. Az.
25 May -3.1 00:29:33 10° WNW 00:32:46 54° N 00:35:43 12° E visible
25 May -3.0 02:06:05 10° WNW 02:08:18 38° W 02:08:18 38° W visible
25 May -3.9 22:00:34 10° WSW 22:03:51 82° SSE 22:07:08 10° ENE visible
25 May -3.0 23:37:16 10° W 23:40:29 52° N 23:43:42 10° ENE visible
26 May -3.9 01:13:53 10° WNW 01:17:10 84° NNE 01:17:14 82° NE visible
26 May -3.1 22:44:58 10° W 22:48:11 57° N 22:51:26 10° ENE visible
27 May -3.5 00:21:39 10° WNW 00:24:55 65° NNE 00:26:25 29° E visible
27 May -1.6 01:58:15 10° W 01:59:02 16° W 01:59:02 16° W visible
27 May -3.4 21:52:39 10° W 21:55:55 68° NNW 21:59:11 10° ENE visible
27 May -3.2 23:29:24 10° WNW 23:32:38 55° N 23:35:41 11° E visible
28 May -3.1 01:05:57 10° WNW 01:08:19 41° W 01:08:19 41° W visible
28 May -3.0 22:37:06 10° WNW 22:40:19 52° N 22:43:32 10° E visible
29 May -4.0 00:13:41 10° WNW 00:16:58 87° SSW 00:17:38 54° ESE visible
29 May -3.6 23:21:26 10° WNW 23:24:42 71° NNE 23:27:01 18° E visible
30 May -2.1 00:58:03 10° W 00:59:38 22° W 00:59:38 22° W visible
30 May -3.3 22:29:08 10° WNW 22:32:23 58° N 22:35:37 10° E visible
31 May -3.7 00:05:41 10° WNW 00:08:53 51° SSW 00:09:02 51° SSW visible
31 May -3.9 23:13:22 10° WNW 23:16:39 78° SSW 23:18:26 24° ESE visible
01 Jun -1.4 00:50:28 10° W 00:51:05 13° WSW 00:51:05 13° WSW visible
01 Jun -3.7 22:21:04 10° WNW 22:24:21 77° NNE 22:27:38 10° ESE visible
01 Jun -2.6 23:57:47 10° W 00:00:31 28° SW 00:00:31 28° SW visible
02 Jun -3.3 23:05:19 10° WNW 23:08:28 44° SSW 23:09:59 24° SSE visible
03 Jun -3.8 22:12:57 10° WNW 22:16:12 68° SSW 22:19:27 10° ESE visible
03 Jun -1.7 23:50:17 10° WSW 23:52:06 15° SW 23:52:06 15° SW visible
